ICEYE-X61

导读

ICEYE-X61是芬兰ICEYE公司冰眼卫星系列的合成孔径雷达遥感卫星,于2025年11月28日成功发射。作为小型SAR卫星,它搭载高性能X波段雷达系统,最高分辨率可达25厘米,具备驻留、条带、扫描等多种成像模式。可支持港口监控、溢油探测、灾害应急响应、海冰观测等应用,助力提升全球对地观测能力,服务商业与客户专项任务。

Basic Information
目录编号:
66754
目录名称:
ICEYE-X61
国际标识:
2025-276CS
轨道中心:
EARTH
卫星名称:
ICEYE-X61
卫星全名:
ICEYE-X61
卫星状态:
在轨 (已飞行202 天)
发射日期:
2025-11-28 UTC
国别 :
(FI)
星等 :
--
Orbit Information
数据来源 国际轨道数据 AOE轨道数据
星历时间 2026-06-18T02:05:00+0800
14小时前
查看轨道信息
2026-06-13T01:00:00+0800
5天前
查看轨道信息
半长轴 6888.766km 6888.856km
偏心率 0.0002814 0.0003329
轨道倾角 97.420° 97.422°
近地点辐角 8.540° 22.890°
升交点赤经 242.233° 237.282°
平近点角 351.588° 136.845°
近地点 508.69km 508.425km
远地点 512.568km 513.013km
周期 94.836分钟 94.838分钟
每日圈数 15.184155 15.183858
Detailed Information
使用方式:
暂无
2D Orbit Map
3D Orbit Map
Orbit Altitude Analysis Chart
Orbit Inclination Analysis Chart
Orbit Comprehensive Analysis Chart
View Comprehensive Chart